Погода в Воскресенке

Россия / Саратовская область     50°59′26″N   46°27′57″E
темп.,
°C
ветер,
м/с
пор.,
м/с
влажн.,
%
обл.,
%
осадки,
мм/ч
давл.,
гПа
погр.,
м
21 января, пт
пт2101:00−18ююз2210098 0.0 102114
04:00−19ююз2210083 0.0 102113
07:00−18ююв3310089 0.0 102034
10:00−17ю4610096 0.0 102180
13:00−12ююв51196100 0.0 1020240
16:00−10ююв51393100 0.0 1019320
19:00−8ююв71591100 0.0 1017425
22:00−6ююв81694100 0.2 1016499
22 января, сб
сб2201:00−5ююв81595100 0.4 1015493
04:00−4ююв71496100 1.8 1015486
07:00−4ю61296100 1.5 1015436
10:00−2ю51097100 2.7 1016410
13:00−2ю61096100 0.9 1017470
16:00−2ю61297100 2.1 1017657
19:00−2ююв61397100 3.1 1018628
22:00−2ююв71497100 5.7 1019598
23 января, вс
вс2301:00−3ююв71396100 1.9 1020502
04:00−4юв51096100 3.5 1022337
07:00−4юв4996100 1.0 1023326
10:00−4вюв51096100 2.0 1024359
13:00−3вюв61296100 0.6 1025417
16:00−4вюв71388100 0.7 1025362
19:00−6в61487100 0.0 1027338
22:00−7в61486100 0.0 1029306
24 января, пн
пн2401:00−8в71585100 0.0 1029305
04:00−8в61485100 0.0 1030315
07:00−9в61486100 0.0 1030303
10:00−8в61486100 0.0 1031321
13:00−7в61485100 0.0 1032364
16:00−8в61385100 0.0 1031307
19:00−10в51386100 0.0 1032256
22:00−11в51384100 0.0 1032223
25 января, вт
вт2501:00−13в41086100 0.0 1032150
04:00−14в41089100 0.0 1032133
07:00−16в3790100 0.0 103285
10:00−15в3892100 0.0 1032112
13:00−10вюв389338 0.0 1032194
16:00−10в48945 0.0 1031153
19:00−13вюв49955 0.0 1031128
22:00−14вюв499743 0.0 1031112